Time,TemperatureF,DewpointF,PressureIn,WindDirection,WindDirectionDegrees,WindSpeedMPH,WindSpeedGustMPH,Humidity,HourlyPrecipIn,Conditions,Clouds,dailyrainin,SoftwareType,DateUTC
2013-03-13 00:00:00,43.4,42.9,29.72,NW,322,1.0,1.0,98,0.00,,,1.05,Wunderground v.1.15,2013-03-13 04:00:00,
2013-03-13 00:05:00,43.1,42.6,29.72,WNW,294,1.0,1.0,98,0.00,,,0.00,Wunderground v.1.15,2013-03-13 04:05:00,
2013-03-13 00:10:00,42.7,42.2,29.74,SSW,194,1.0,1.0,98,0.00,,,0.00,Wunderground v.1.15,2013-03-13 04:10:00,
2013-03-13 00:15:00,42.5,42.0,29.74,SSW,202,2.0,2.0,98,0.00,,,0.00,Wunderground v.1.15,2013-03-13 04:15:00,
2013-03-13 00:25:00,42.3,41.8,29.74,SSW,203,2.0,3.0,98,0.00,,,0.00,Wunderground v.1.15,2013-03-13 04:25:00,
2013-03-13 00:30:00,42.2,41.7,29.74,SW,221,2.0,2.0,98,0.00,,,0.00,Wunderground v.1.15,2013-03-13 04:30:00,
2013-03-13 00:40:00,41.9,41.1,29.73,NNW,332,2.0,2.0,97,0.00,,,0.00,Wunderground v.1.15,2013-03-13 04:40:00,
2013-03-13 00:45:00,42.0,41.2,29.73,North,355,2.0,2.0,97,0.00,,,0.00,Wunderground v.1.15,2013-03-13 04:45:00,
2013-03-13 00:50:00,42.0,41.2,29.73,NNE,24,2.0,2.0,97,0.00,,,0.00,Wunderground v.1.15,2013-03-13 04:50:00,
2013-03-13 01:00:00,42.0,40.9,29.73,South,177,2.0,4.0,96,0.00,,,0.00,Wunderground v.1.15,2013-03-13 05:00:00,
2013-03-13 01:05:00,41.9,40.6,29.74,South,188,2.0,4.0,95,0.00,,,0.00,Wunderground v.1.15,2013-03-13 05:05:00,
2013-03-13 01:15:00,41.8,40.5,29.74,NE,35,1.0,2.0,95,0.00,,,0.00,Wunderground v.1.15,2013-03-13 05:15:00,
2013-03-13 01:25:00,41.6,40.0,29.74,NE,34,0.0,1.0,94,0.00,,,0.00,Wunderground v.1.15,2013-03-13 05:25:00,
2013-03-13 01:30:00,41.4,39.8,29.74,East,98,0.0,1.0,94,0.00,,,0.00,Wunderground v.1.15,2013-03-13 05:30:00,
2013-03-13 01:35:00,41.2,39.6,29.75,South,169,0.0,1.0,94,0.00,,,0.00,Wunderground v.1.15,2013-03-13 05:35:00,
2013-03-13 01:45:00,41.0,39.1,29.75,West,268,3.0,6.0,93,0.00,,,0.00,Wunderground v.1.15,2013-03-13 05:45:00,
2013-03-13 01:50:00,41.0,39.1,29.75,NNE,32,2.0,2.0,93,0.00,,,0.00,Wunderground v.1.15,2013-03-13 05:50:00,
2013-03-13 02:00:00,40.6,38.7,29.74,SE,137,0.0,1.0,93,0.00,,,0.00,Wunderground v.1.15,2013-03-13 06:00:00,
2013-03-13 02:05:00,40.4,38.3,29.75,NE,35,0.0,1.0,92,0.00,,,0.00,Wunderground v.1.15,2013-03-13 06:05:00,
2013-03-13 02:15:00,40.3,38.2,29.75,SW,227,1.0,1.0,92,0.00,,,0.00,Wunderground v.1.15,2013-03-13 06:15:00,
2013-03-13 02:20:00,40.2,37.8,29.75,East,98,1.0,2.0,91,0.00,,,0.00,Wunderground v.1.15,2013-03-13 06:20:00,
2013-03-13 02:30:00,40.0,37.3,29.74,South,184,1.0,1.0,90,0.00,,,0.00,Wunderground v.1.15,2013-03-13 06:30:00,
2013-03-13 02:35:00,40.0,37.0,29.74,South,172,1.0,1.0,89,0.00,,,0.00,Wunderground v.1.15,2013-03-13 06:35:00,
2013-03-13 02:45:00,39.7,36.4,29.74,South,173,0.0,0.0,88,0.00,,,0.00,Wunderground v.1.15,2013-03-13 06:45:00,
2013-03-13 02:50:00,39.4,36.1,29.74,South,184,0.0,2.0,88,0.00,,,0.00,Wunderground v.1.15,2013-03-13 06:50:00,
2013-03-13 03:00:00,39.2,35.9,29.75,SSW,206,2.0,2.0,88,0.00,,,0.00,Wunderground v.1.15,2013-03-13 07:00:00,
2013-03-13 03:05:00,39.1,35.8,29.75,SSW,203,1.0,3.0,88,0.00,,,0.00,Wunderground v.1.15,2013-03-13 07:05:00,
2013-03-13 03:15:00,38.8,35.3,29.75,SSW,198,1.0,1.0,87,0.00,,,0.00,Wunderground v.1.15,2013-03-13 07:15:00,
2013-03-13 03:20:00,38.6,35.4,29.75,SSW,198,0.0,1.0,88,0.00,,,0.00,Wunderground v.1.15,2013-03-13 07:20:00,
2013-03-13 03:25:00,38.5,35.3,29.75,North,355,0.0,1.0,88,0.00,,,0.00,Wunderground v.1.15,2013-03-13 07:25:00,
2013-03-13 03:35:00,38.5,35.5,29.75,NNW,341,1.0,2.0,89,0.00,,,0.00,Wunderground v.1.15,2013-03-13 07:35:00,
2013-03-13 03:45:00,38.4,35.4,29.75,South,190,1.0,2.0,89,0.00,,,0.00,Wunderground v.1.15,2013-03-13 07:45:00,
2013-03-13 03:50:00,38.4,35.4,29.75,NW,309,1.0,1.0,89,0.00,,,0.00,Wunderground v.1.15,2013-03-13 07:50:00,
2013-03-13 04:00:00,38.2,35.2,29.74,NNW,343,1.0,1.0,89,0.00,,,0.00,Wunderground v.1.15,2013-03-13 08:00:00,
2013-03-13 04:10:00,38.2,35.2,29.74,NNE,15,1.0,6.0,89,0.00,,,0.00,Wunderground v.1.15,2013-03-13 08:10:00,
2013-03-13 04:15:00,38.2,35.2,29.74,SW,221,1.0,6.0,89,0.00,,,0.00,Wunderground v.1.15,2013-03-13 08:15:00,
2013-03-13 04:20:00,38.2,35.0,29.74,SSW,193,2.0,2.0,88,0.00,,,0.00,Wunderground v.1.15,2013-03-13 08:20:00,
2013-03-13 04:30:00,38.0,34.8,29.74,SW,226,1.0,1.0,88,0.00,,,0.00,Wunderground v.1.15,2013-03-13 08:30:00,
2013-03-13 04:35:00,38.0,34.8,29.75,NW,304,2.0,4.0,88,0.00,,,0.00,Wunderground v.1.15,2013-03-13 08:35:00,
2013-03-13 04:45:00,37.9,34.7,29.75,NW,316,1.0,2.0,88,0.00,,,0.00,Wunderground v.1.15,2013-03-13 08:45:00,
2013-03-13 04:55:00,37.8,34.6,29.75,North,360,1.0,2.0,88,0.00,,,0.00,Wunderground v.1.15,2013-03-13 08:55:00,
2013-03-13 05:00:00,37.8,34.6,29.75,WSW,241,0.0,0.0,88,0.00,,,0.00,Wunderground v.1.15,2013-03-13 09:00:00,
2013-03-13 05:05:00,37.7,34.5,29.75,NNW,342,0.0,1.0,88,0.00,,,0.00,Wunderground v.1.15,2013-03-13 09:05:00,
2013-03-13 05:15:00,37.6,34.4,29.75,WNW,298,1.0,4.0,88,0.00,,,0.00,Wunderground v.1.15,2013-03-13 09:15:00,
2013-03-13 05:25:00,37.5,34.3,29.75,SW,227,1.0,1.0,88,0.00,,,0.00,Wunderground v.1.15,2013-03-13 09:25:00,
2013-03-13 05:30:00,37.5,34.3,29.75,WNW,298,1.0,1.0,88,0.00,,,0.00,Wunderground v.1.15,2013-03-13 09:30:00,
2013-03-13 05:40:00,37.4,34.2,29.75,NW,325,2.0,3.0,88,0.00,,,0.00,Wunderground v.1.15,2013-03-13 09:40:00,
2013-03-13 05:45:00,37.4,34.2,29.75,NW,306,2.0,3.0,88,0.00,,,0.00,Wunderground v.1.15,2013-03-13 09:45:00,
2013-03-13 05:55:00,37.3,34.1,29.76,NW,306,1.0,3.0,88,0.00,,,0.00,Wunderground v.1.15,2013-03-13 09:55:00,
2013-03-13 06:00:00,37.2,34.0,29.76,NNE,30,1.0,2.0,88,0.00,,,0.00,Wunderground v.1.15,2013-03-13 10:00:00,
2013-03-13 06:05:00,37.2,34.0,29.76,West,259,2.0,2.0,88,0.00,,,0.00,Wunderground v.1.15,2013-03-13 10:05:00,
2013-03-13 06:15:00,37.1,33.9,29.76,NNW,327,2.0,6.0,88,0.00,,,0.00,Wunderground v.1.15,2013-03-13 10:15:00,
2013-03-13 06:25:00,37.0,33.8,29.76,NW,317,2.0,2.0,88,0.00,,,0.00,Wunderground v.1.15,2013-03-13 10:25:00,
2013-03-13 06:35:00,36.9,33.7,29.76,NW,304,1.0,3.0,88,0.00,,,0.00,Wunderground v.1.15,2013-03-13 10:35:00,
2013-03-13 06:40:00,37.1,33.9,29.76,NNW,343,3.0,3.0,88,0.00,,,0.00,Wunderground v.1.15,2013-03-13 10:40:00,
2013-03-13 06:45:00,37.0,33.8,29.76,North,355,3.0,4.0,88,0.00,,,0.00,Wunderground v.1.15,2013-03-13 10:45:00,
2013-03-13 06:55:00,36.9,33.7,29.76,NNW,341,2.0,5.0,88,0.00,,,0.00,Wunderground v.1.15,2013-03-13 10:55:00,
2013-03-13 07:00:00,36.8,33.6,29.76,NW,309,2.0,2.0,88,0.00,,,0.00,Wunderground v.1.15,2013-03-13 11:00:00,
2013-03-13 07:05:00,36.8,33.6,29.75,SSE,168,1.0,2.0,88,0.00,,,0.00,Wunderground v.1.15,2013-03-13 11:05:00,
2013-03-13 07:15:00,36.8,33.3,29.75,North,360,3.0,5.0,87,0.00,,,0.00,Wunderground v.1.15,2013-03-13 11:15:00,
2013-03-13 07:25:00,36.8,33.3,29.75,North,360,3.0,7.0,87,0.00,,,0.00,Wunderground v.1.15,2013-03-13 11:25:00,
2013-03-13 07:30:00,36.8,33.3,29.75,NW,310,3.0,3.0,87,0.00,,,0.00,Wunderground v.1.15,2013-03-13 11:30:00,
2013-03-13 07:40:00,37.0,33.5,29.75,NNW,329,4.0,4.0,87,0.00,,,0.00,Wunderground v.1.15,2013-03-13 11:40:00,
2013-03-13 07:45:00,37.1,33.6,29.75,NNE,19,4.0,4.0,87,0.00,,,0.00,Wunderground v.1.15,2013-03-13 11:45:00,
2013-03-13 07:55:00,37.2,33.4,29.75,NW,321,3.0,3.0,86,0.00,,,0.00,Wunderground v.1.15,2013-03-13 11:55:00,
2013-03-13 08:00:00,37.3,33.5,29.75,NW,321,2.0,5.0,86,0.00,,,0.00,Wunderground v.1.15,2013-03-13 12:00:00,
2013-03-13 08:05:00,37.6,33.8,29.75,NW,311,3.0,5.0,86,0.00,,,0.00,Wunderground v.1.15,2013-03-13 12:05:00,
2013-03-13 08:15:00,37.9,33.8,29.74,NNW,337,4.0,5.0,85,0.00,,,0.00,Wunderground v.1.15,2013-03-13 12:15:00,
2013-03-13 08:25:00,38.3,33.6,29.73,North,360,4.0,8.0,83,0.00,,,0.00,Wunderground v.1.15,2013-03-13 12:25:00,
2013-03-13 08:30:00,38.4,34.0,29.73,NNE,22,6.0,6.0,84,0.00,,,0.00,Wunderground v.1.15,2013-03-13 12:30:00,
2013-03-13 08:40:00,38.7,34.0,29.73,WNW,284,3.0,6.0,83,0.00,,,0.00,Wunderground v.1.15,2013-03-13 12:40:00,
2013-03-13 08:45:00,38.9,33.9,29.73,NNW,338,5.0,6.0,82,0.00,,,0.00,Wunderground v.1.15,2013-03-13 12:45:00,
2013-03-13 08:50:00,39.1,34.1,29.73,NE,46,5.0,6.0,82,0.00,,,0.00,Wunderground v.1.15,2013-03-13 12:50:00,
2013-03-13 09:00:00,39.4,34.1,29.73,SSW,202,4.0,12.0,81,0.00,,,0.00,Wunderground v.1.15,2013-03-13 13:00:00,
2013-03-13 09:05:00,39.6,34.2,29.73,NNE,13,5.0,12.0,81,0.00,,,0.00,Wunderground v.1.15,2013-03-13 13:05:00,
2013-03-13 09:15:00,39.9,34.2,29.74,NNE,13,4.0,5.0,80,0.00,,,0.00,Wunderground v.1.15,2013-03-13 13:15:00,
2013-03-13 09:20:00,40.0,34.0,29.73,NW,315,4.0,4.0,79,0.00,,,0.00,Wunderground v.1.15,2013-03-13 13:20:00,
2013-03-13 09:30:00,40.6,34.3,29.73,North,5,4.0,6.0,78,0.00,,,0.00,Wunderground v.1.15,2013-03-13 13:30:00,
2013-03-13 09:35:00,40.7,34.0,29.74,NNE,16,3.0,6.0,77,0.00,,,0.00,Wunderground v.1.15,2013-03-13 13:35:00,
2013-03-13 09:45:00,40.9,33.9,29.74,NW,309,2.0,3.0,76,0.00,,,0.00,Wunderground v.1.15,2013-03-13 13:45:00,
2013-03-13 09:55:00,40.8,33.8,29.75,NNE,33,2.0,2.0,76,0.00,,,0.00,Wunderground v.1.15,2013-03-13 13:55:00,
2013-03-13 10:00:00,40.7,34.0,29.75,NNW,347,3.0,3.0,77,0.00,,,0.00,Wunderground v.1.15,2013-03-13 14:00:00,
2013-03-13 10:05:00,41.0,34.0,29.74,NE,48,3.0,3.0,76,0.00,,,0.00,Wunderground v.1.15,2013-03-13 14:05:00,
2013-03-13 10:15:00,41.5,34.2,29.73,West,259,3.0,3.0,75,0.00,,,0.00,Wunderground v.1.15,2013-03-13 14:15:00,
2013-03-13 10:20:00,41.6,33.9,29.73,North,350,4.0,4.0,74,0.00,,,0.00,Wunderground v.1.15,2013-03-13 14:20:00,
2013-03-13 10:25:00,41.8,34.1,29.73,WNW,291,4.0,4.0,74,0.00,,,0.00,Wunderground v.1.15,2013-03-13 14:25:00,
2013-03-13 10:35:00,41.8,33.8,29.73,NNW,344,4.0,4.0,73,0.00,,,0.00,Wunderground v.1.15,2013-03-13 14:35:00,
2013-03-13 10:40:00,41.8,33.8,29.73,NE,36,4.0,4.0,73,0.00,,,0.00,Wunderground v.1.15,2013-03-13 14:40:00,
2013-03-13 10:45:00,41.8,33.4,29.73,NW,304,3.0,4.0,72,0.00,,,0.00,Wunderground v.1.15,2013-03-13 14:45:00,
2013-03-13 10:55:00,41.8,33.4,29.73,North,360,4.0,4.0,72,0.00,,,0.00,Wunderground v.1.15,2013-03-13 14:55:00,
2013-03-13 11:00:00,42.0,32.9,29.73,NW,311,3.0,5.0,70,0.00,,,0.00,Wunderground v.1.15,2013-03-13 15:00:00,
2013-03-13 11:05:00,42.3,33.2,29.73,ENE,59,3.0,5.0,70,0.00,,,0.00,Wunderground v.1.15,2013-03-13 15:05:00,
2013-03-13 11:15:00,42.1,32.7,29.73,North,355,4.0,5.0,69,0.00,,,0.00,Wunderground v.1.15,2013-03-13 15:15:00,
2013-03-13 11:25:00,41.8,31.6,29.73,NNE,16,5.0,6.0,67,0.00,,,0.00,Wunderground v.1.15,2013-03-13 15:25:00,
2013-03-13 11:30:00,42.1,31.6,29.73,North,355,4.0,7.0,66,0.00,,,0.00,Wunderground v.1.15,2013-03-13 15:30:00,
2013-03-13 11:40:00,42.8,31.8,29.73,WNW,290,4.0,4.0,65,0.00,,,0.00,Wunderground v.1.15,2013-03-13 15:40:00,
2013-03-13 11:45:00,43.1,31.7,29.73,NNW,329,3.0,4.0,64,0.00,,,0.00,Wunderground v.1.15,2013-03-13 15:45:00,
2013-03-13 11:55:00,43.2,32.2,29.73,NNE,33,4.0,8.0,65,0.00,,,0.00,Wunderground v.1.15,2013-03-13 15:55:00,
2013-03-13 12:00:00,42.8,32.2,29.73,NW,304,5.0,5.0,66,0.00,,,0.00,Wunderground v.1.15,2013-03-13 16:00:00,
2013-03-13 12:05:00,42.4,32.2,29.73,WNW,288,3.0,5.0,67,0.00,,,0.00,Wunderground v.1.15,2013-03-13 16:05:00,
2013-03-13 12:15:00,42.1,31.6,29.74,SW,215,3.0,3.0,66,0.00,,,0.00,Wunderground v.1.15,2013-03-13 16:15:00,
2013-03-13 12:20:00,42.1,31.6,29.74,NNW,329,3.0,3.0,66,0.00,,,0.00,Wunderground v.1.15,2013-03-13 16:20:00,
2013-03-13 12:25:00,42.1,31.6,29.74,NNW,340,3.0,5.0,66,0.00,,,0.00,Wunderground v.1.15,2013-03-13 16:25:00,
2013-03-13 12:35:00,42.2,30.9,29.73,NE,34,4.0,4.0,64,0.00,,,0.00,Wunderground v.1.15,2013-03-13 16:35:00,
2013-03-13 12:40:00,42.3,31.0,29.73,NW,326,5.0,5.0,64,0.00,,,0.00,Wunderground v.1.15,2013-03-13 16:40:00,
2013-03-13 12:50:00,43.4,31.2,29.73,North,355,3.0,4.0,62,0.00,,,0.00,Wunderground v.1.15,2013-03-13 16:50:00,
2013-03-13 12:55:00,43.8,30.8,29.72,NNE,15,3.0,4.0,60,0.00,,,0.00,Wunderground v.1.15,2013-03-13 16:55:00,
2013-03-13 13:05:00,44.1,29.8,29.72,NNE,15,3.0,3.0,57,0.00,,,0.00,Wunderground v.1.15,2013-03-13 17:05:00,
2013-03-13 13:15:00,45.6,30.8,29.72,North,5,1.0,1.0,56,0.00,,,0.00,Wunderground v.1.15,2013-03-13 17:15:00,
2013-03-13 13:20:00,45.5,31.1,29.71,North,355,2.0,5.0,57,0.00,,,0.00,Wunderground v.1.15,2013-03-13 17:20:00,
2013-03-13 13:25:00,44.7,31.2,29.71,NNW,333,3.0,5.0,59,0.00,,,0.00,Wunderground v.1.15,2013-03-13 17:25:00,
2013-03-13 13:35:00,43.6,31.0,29.71,WNW,300,3.0,4.0,61,0.00,,,0.00,Wunderground v.1.15,2013-03-13 17:35:00,
2013-03-13 13:40:00,43.5,30.9,29.71,NNW,342,2.0,2.0,61,0.00,,,0.00,Wunderground v.1.15,2013-03-13 17:40:00,
2013-03-13 13:50:00,43.6,30.6,29.71,NW,317,2.0,4.0,60,0.00,,,0.00,Wunderground v.1.15,2013-03-13 17:50:00,
2013-03-13 13:55:00,43.3,29.9,29.71,SW,215,3.0,4.0,59,0.00,,,0.00,Wunderground v.1.15,2013-03-13 17:55:00,
2013-03-13 14:05:00,43.4,30.4,29.72,North,355,2.0,5.0,60,0.00,,,0.00,Wunderground v.1.15,2013-03-13 18:05:00,
2013-03-13 14:15:00,43.5,30.5,29.71,North,355,3.0,3.0,60,0.00,,,0.00,Wunderground v.1.15,2013-03-13 18:15:00,
2013-03-13 14:20:00,43.0,30.1,29.71,NE,38,4.0,5.0,60,0.00,,,0.00,Wunderground v.1.15,2013-03-13 18:20:00,
2013-03-13 14:25:00,42.9,30.0,29.71,NNE,22,5.0,5.0,60,0.00,,,0.00,Wunderground v.1.15,2013-03-13 18:25:00,
2013-03-13 14:35:00,43.9,30.5,29.70,SW,235,3.0,9.0,59,0.00,,,0.00,Wunderground v.1.15,2013-03-13 18:35:00,
2013-03-13 14:40:00,44.5,30.6,29.70,NNE,24,2.0,2.0,58,0.00,,,0.00,Wunderground v.1.15,2013-03-13 18:40:00,
2013-03-13 14:50:00,43.8,30.0,29.70,NNW,336,3.0,3.0,58,0.00,,,0.00,Wunderground v.1.15,2013-03-13 18:50:00,
2013-03-13 14:55:00,43.6,29.8,29.70,North,360,3.0,5.0,58,0.00,,,0.00,Wunderground v.1.15,2013-03-13 18:55:00,
2013-03-13 15:05:00,43.2,29.8,29.70,NNW,348,4.0,9.0,59,0.00,,,0.00,Wunderground v.1.15,2013-03-13 19:05:00,
2013-03-13 15:15:00,43.3,28.6,29.69,North,360,2.0,5.0,56,0.00,,,0.00,Wunderground v.1.15,2013-03-13 19:15:00,
2013-03-13 15:20:00,43.3,29.1,29.70,NW,321,2.0,2.0,57,0.00,,,0.00,Wunderground v.1.15,2013-03-13 19:20:00,
2013-03-13 15:25:00,43.2,29.0,29.70,NNW,337,2.0,3.0,57,0.00,,,0.00,Wunderground v.1.15,2013-03-13 19:25:00,
2013-03-13 15:35:00,43.2,29.4,29.70,NNW,348,2.0,2.0,58,0.00,,,0.00,Wunderground v.1.15,2013-03-13 19:35:00,
2013-03-13 15:40:00,43.1,28.9,29.70,North,355,4.0,5.0,57,0.00,,,0.00,Wunderground v.1.15,2013-03-13 19:40:00,
2013-03-13 15:50:00,43.4,28.3,29.70,NW,321,4.0,5.0,55,0.00,,,0.00,Wunderground v.1.15,2013-03-13 19:50:00,
2013-03-13 15:55:00,43.5,28.4,29.70,NNW,342,3.0,5.0,55,0.00,,,0.00,Wunderground v.1.15,2013-03-13 19:55:00,
2013-03-13 16:00:00,43.6,28.9,29.70,East,85,2.0,4.0,56,0.00,,,0.00,Wunderground v.1.15,2013-03-13 20:00:00,
2013-03-13 16:05:00,43.4,27.4,29.70,North,5,3.0,5.0,53,0.00,,,0.00,Wunderground v.1.15,2013-03-13 20:05:00,
2013-03-13 16:15:00,43.4,27.4,29.70,West,279,3.0,6.0,53,0.00,,,0.00,Wunderground v.1.15,2013-03-13 20:15:00,
2013-03-13 16:20:00,43.4,27.4,29.70,WSW,254,2.0,11.0,53,0.00,,,0.00,Wunderground v.1.15,2013-03-13 20:20:00,
2013-03-13 16:25:00,43.6,28.0,29.70,WNW,303,2.0,11.0,54,0.00,,,0.00,Wunderground v.1.15,2013-03-13 20:25:00,
2013-03-13 16:30:00,44.0,28.0,29.70,NNE,18,3.0,3.0,53,0.00,,,0.00,Wunderground v.1.15,2013-03-13 20:30:00,
2013-03-13 16:40:00,43.8,26.3,29.70,NNE,19,4.0,4.0,50,0.00,,,0.00,Wunderground v.1.15,2013-03-13 20:40:00,
2013-03-13 16:50:00,44.0,26.5,29.71,NNW,333,3.0,3.0,50,0.00,,,0.00,Wunderground v.1.15,2013-03-13 20:50:00,
2013-03-13 16:55:00,44.2,26.2,29.71,WNW,287,3.0,3.0,49,0.00,,,0.00,Wunderground v.1.15,2013-03-13 20:55:00,
2013-03-13 17:05:00,43.8,25.4,29.71,NW,315,3.0,3.0,48,0.00,,,0.00,Wunderground v.1.15,2013-03-13 21:05:00,
2013-03-13 17:15:00,44.0,25.5,29.71,NNW,346,2.0,4.0,48,0.00,,,0.00,Wunderground v.1.15,2013-03-13 21:15:00,
2013-03-13 17:20:00,43.4,25.5,29.71,NNE,26,2.0,3.0,49,0.00,,,0.00,Wunderground v.1.15,2013-03-13 21:20:00,
2013-03-13 17:25:00,42.9,25.0,29.71,NNE,25,2.0,3.0,49,0.00,,,0.00,Wunderground v.1.15,2013-03-13 21:25:00,
2013-03-13 17:35:00,42.5,25.1,29.71,NW,309,0.0,1.0,50,0.00,,,0.00,Wunderground v.1.15,2013-03-13 21:35:00,
2013-03-13 17:45:00,42.2,24.9,29.71,NW,323,1.0,4.0,50,0.00,,,0.00,Wunderground v.1.15,2013-03-13 21:45:00,
2013-03-13 17:50:00,42.1,25.3,29.71,North,355,1.0,1.0,51,0.00,,,0.00,Wunderground v.1.15,2013-03-13 21:50:00,
2013-03-13 18:00:00,41.8,25.0,29.71,NW,314,0.0,0.0,51,0.00,,,0.00,Wunderground v.1.15,2013-03-13 22:00:00,
2013-03-13 18:05:00,41.6,25.3,29.71,SW,219,0.0,0.0,52,0.00,,,0.00,Wunderground v.1.15,2013-03-13 22:05:00,
2013-03-13 18:15:00,41.2,25.8,29.72,West,265,0.0,1.0,54,0.00,,,0.00,Wunderground v.1.15,2013-03-13 22:15:00,
2013-03-13 18:20:00,41.1,25.3,29.71,NW,309,0.0,0.0,53,0.00,,,0.00,Wunderground v.1.15,2013-03-13 22:20:00,
2013-03-13 18:30:00,40.9,26.0,29.71,NW,304,0.0,0.0,55,0.00,,,0.00,Wunderground v.1.15,2013-03-13 22:30:00,
2013-03-13 18:35:00,40.6,25.7,29.72,WNW,286,0.0,0.0,55,0.00,,,0.00,Wunderground v.1.15,2013-03-13 22:35:00,
2013-03-13 18:45:00,40.3,25.8,29.72,NW,307,0.0,0.0,56,0.00,,,0.00,Wunderground v.1.15,2013-03-13 22:45:00,
2013-03-13 18:50:00,40.1,25.2,29.72,East,85,0.0,0.0,55,0.00,,,0.00,Wunderground v.1.15,2013-03-13 22:50:00,
2013-03-13 19:00:00,39.8,25.8,29.72,East,85,0.0,0.0,57,0.00,,,0.00,Wunderground v.1.15,2013-03-13 23:00:00,
2013-03-13 19:05:00,39.6,26.4,29.73,East,85,0.0,0.0,59,0.00,,,0.00,Wunderground v.1.15,2013-03-13 23:05:00,
2013-03-13 19:15:00,39.3,25.7,29.73,WSW,248,0.0,0.0,58,0.00,,,0.00,Wunderground v.1.15,2013-03-13 23:15:00,
2013-03-13 19:20:00,39.4,25.8,29.73,WNW,295,1.0,5.0,58,0.00,,,0.00,Wunderground v.1.15,2013-03-13 23:20:00,
2013-03-13 19:30:00,39.9,26.3,29.73,NW,318,1.0,1.0,58,0.00,,,0.00,Wunderground v.1.15,2013-03-13 23:30:00,
2013-03-13 19:35:00,40.0,26.8,29.73,NW,326,1.0,1.0,59,0.00,,,0.00,Wunderground v.1.15,2013-03-13 23:35:00,
2013-03-13 19:45:00,39.6,26.4,29.74,NNW,342,0.0,0.0,59,0.00,,,0.00,Wunderground v.1.15,2013-03-13 23:45:00,
2013-03-13 19:50:00,39.5,26.8,29.73,NNW,338,0.0,0.0,60,0.00,,,0.00,Wunderground v.1.15,2013-03-13 23:50:00,
2013-03-13 20:00:00,39.1,27.2,29.73,NNW,338,0.0,0.0,62,0.00,,,0.00,Wunderground v.1.15,2013-03-14 00:00:00,
2013-03-13 20:05:00,38.9,27.4,29.73,North,11,0.0,1.0,63,0.00,,,0.00,Wunderground v.1.15,2013-03-14 00:05:00,
2013-03-13 20:15:00,38.5,27.7,29.73,North,9,0.0,0.0,65,0.00,,,0.00,Wunderground v.1.15,2013-03-14 00:15:00,
2013-03-13 20:25:00,37.8,27.8,29.74,North,9,0.0,0.0,67,0.00,,,0.00,Wunderground v.1.15,2013-03-14 00:25:00,
2013-03-13 20:30:00,37.5,27.5,29.74,North,9,0.0,0.0,67,0.00,,,0.00,Wunderground v.1.15,2013-03-14 00:30:00,
2013-03-13 20:35:00,37.3,27.7,29.74,North,9,0.0,0.0,68,0.00,,,0.00,Wunderground v.1.15,2013-03-14 00:35:00,
2013-03-13 20:45:00,36.7,28.2,29.74,North,9,0.0,0.0,71,0.00,,,0.00,Wunderground v.1.15,2013-03-14 00:45:00,
2013-03-13 20:50:00,36.1,27.6,29.74,North,9,0.0,0.0,71,0.00,,,0.00,Wunderground v.1.15,2013-03-14 00:50:00,
2013-03-13 21:00:00,35.1,27.6,29.75,North,9,0.0,0.0,74,0.00,,,0.00,Wunderground v.1.15,2013-03-14 01:00:00,
2013-03-13 21:05:00,34.6,27.5,29.75,North,9,0.0,0.0,75,0.00,,,0.00,Wunderground v.1.15,2013-03-14 01:05:00,
2013-03-13 21:15:00,33.7,27.9,29.75,North,9,0.0,0.0,79,0.00,,,0.00,Wunderground v.1.15,2013-03-14 01:15:00,
2013-03-13 21:20:00,33.2,27.7,29.75,North,9,0.0,0.0,80,0.00,,,0.00,Wunderground v.1.15,2013-03-14 01:20:00,
2013-03-13 21:30:00,32.4,27.8,29.75,North,9,0.0,0.0,83,0.00,,,0.00,Wunderground v.1.15,2013-03-14 01:30:00,
2013-03-13 21:35:00,31.9,27.6,29.75,North,9,0.0,0.0,84,0.00,,,0.00,Wunderground v.1.15,2013-03-14 01:35:00,
2013-03-13 21:40:00,31.6,27.3,29.76,North,9,0.0,0.0,84,0.00,,,0.00,Wunderground v.1.15,2013-03-14 01:40:00,
2013-03-13 21:50:00,30.8,27.1,29.76,North,9,0.0,0.0,86,0.00,,,0.00,Wunderground v.1.15,2013-03-14 01:50:00,
2013-03-13 22:00:00,30.2,26.5,29.75,North,9,0.0,0.0,86,0.00,,,0.00,Wunderground v.1.15,2013-03-14 02:00:00,
2013-03-13 22:05:00,29.8,26.4,29.75,North,9,0.0,0.0,87,0.00,,,0.00,Wunderground v.1.15,2013-03-14 02:05:00,
2013-03-13 22:15:00,29.4,26.3,29.75,North,9,0.0,0.0,88,0.00,,,0.00,Wunderground v.1.15,2013-03-14 02:15:00,
2013-03-13 22:20:00,29.2,26.4,29.75,North,9,0.0,0.0,89,0.00,,,0.00,Wunderground v.1.15,2013-03-14 02:20:00,
2013-03-13 22:30:00,29.0,26.4,29.75,North,9,0.0,0.0,90,0.00,,,0.00,Wunderground v.1.15,2013-03-14 02:30:00,
2013-03-13 22:35:00,28.8,26.2,29.75,North,9,0.0,0.0,90,0.00,,,0.00,Wunderground v.1.15,2013-03-14 02:35:00,
2013-03-13 22:45:00,28.7,26.1,29.75,North,9,0.0,0.0,90,0.00,,,0.00,Wunderground v.1.15,2013-03-14 02:45:00,
2013-03-13 22:50:00,28.5,25.9,29.75,North,9,0.0,0.0,90,0.00,,,0.00,Wunderground v.1.15,2013-03-14 02:50:00,
2013-03-13 23:00:00,28.4,26.1,29.75,North,9,0.0,0.0,91,0.00,,,0.00,Wunderground v.1.15,2013-03-14 03:00:00,
2013-03-13 23:05:00,28.3,26.0,29.75,North,9,0.0,0.0,91,0.00,,,0.00,Wunderground v.1.15,2013-03-14 03:05:00,
2013-03-13 23:15:00,28.1,25.8,29.75,North,9,0.0,0.0,91,0.00,,,0.00,Wunderground v.1.15,2013-03-14 03:15:00,
2013-03-13 23:20:00,28.0,25.7,29.75,North,9,0.0,0.0,91,0.00,,,0.00,Wunderground v.1.15,2013-03-14 03:20:00,
2013-03-13 23:30:00,27.8,25.5,29.75,North,9,0.0,0.0,91,0.00,,,0.00,Wunderground v.1.15,2013-03-14 03:30:00,
2013-03-13 23:35:00,27.8,25.5,29.75,North,9,0.0,0.0,91,0.00,,,0.00,Wunderground v.1.15,2013-03-14 03:35:00,
2013-03-13 23:45:00,27.7,25.7,29.74,North,9,0.0,0.0,92,0.00,,,0.00,Wunderground v.1.15,2013-03-14 03:45:00,
2013-03-13 23:50:00,27.5,25.5,29.75,North,9,0.0,0.0,92,0.00,,,0.00,Wunderground v.1.15,2013-03-14 03:50:00,